Regional Weather Roundup
Issued by NWS

Home | Current Version | Previous Version | Graphics & Text | Print | Product List | Glossary Off
Versions: 1 2 3 4 5 6 7 8 9 10 11 12 13 14 15 16 17 18 19 20 21 22 23 24 25 26 27 28 29 30 31 32 33 34 35 36 37 38 39 40 41 42 43 44 45 46 47 48 49

000
ASUS45 KBOU 191610
RWRCO

WEATHER ROUNDUP FOR COLORADO
NATIONAL WEATHER SERVICE DENVER/BOULDER CO
900 AM MST MON FEB 19 2018

NOTE: "FAIR" INDICATES FEW OR NO CLOUDS BELOW 12000 FEET WITH NO
SIGNIFICANT WEATHER AND/OR OBSTRUCTIONS TO VISIBILITY.

COZ001>005-013-030-031-191700-
...NORTHWEST COLORADO...

CITY           SKY/WX    TMP DP  RH WIND       PRES   REMARKS
CRAIG          HVY SNOW  11   5  77 N6        29.39R VSB 1/4 WCI   1
HAYDEN         CLOUDY    20  15  81 W17       29.34R WCI   5
MEEKER         FLURRIES  35  29  78 SW15      29.32F WCI  25
RANGELY        CLOUDY    37  32  84 SW15G29   29.33R
RABBIT EARS PA HVY SNOW  21  19  93 S21       29.32F VSB<1/4 WCI   6
STEAMBOAT SPGS FAIR      34  25  68 SE29      29.30F WCI  21
WALDEN         PTSUNNY   30  23  74 S26G37    29.35F WCI  16
$$

COZ006>008-011-191700-
...WEST CENTRAL VALLEYS...

CITY           SKY/WX    TMP DP  RH WIND       PRES   REMARKS
GRAND JUNCTION CLOUDY    46  28  49 SW23G43   29.37S
MONTROSE       PTSUNNY   45  23  42 S17G32    29.47F
EAGLE          FAIR      40  18  41 SW41G53   29.40S
RIFLE          PTSUNNY   46  22  38 SW22G30   29.35F
DELTA          PTSUNNY   51  23  33 SW23G38   29.43F
NUCLA          FAIR      45  23  42 S18G51    29.48S
$$

COZ017>023-064>068-191700-
...SOUTHWEST COLORADO...

CITY           SKY/WX    TMP DP  RH WIND       PRES   REMARKS
DURANGO        LGT RAIN  35  34  96 N6        29.59F WCI  30
CORTEZ         CLOUDY    46  28  49 SW26G36   29.55S
PAGOSA SPRINGS LGT SNOW  36  33  90 S21G26    29.60F
TELLURIDE      CLOUDY    31  17  54 S15G25    29.53F HAZE    WCI  21
WOLF CREEK PAS CLOUDY    19  19 100 S38G64    29.54F WCI  -1
$$

COZ009-010-012-014-032>034-037-058>063-191700-
...CENTRAL COLORADO...

CITY           SKY/WX    TMP DP  RH WIND       PRES   REMARKS
ASPEN          CLOUDY    34  22  61 S8        29.40F WCI  27
BUENA VISTA    FAIR      38  20  48 S20G30    29.46F
COPPER MTN     LGT SNOW  23  14  68 S18G30    29.45F WCI   9
BERTHOUD PASS  FAIR      16   5  62 SW18G43   29.44F WCI  -1
COTTONWOOD PAS PTSUNNY   36  10  35 S18G37    29.46F
GUNNISON       FAIR      34  21  59 CALM      29.48F
GRANBY         FAIR      34  18  52 SW7       29.40S WCI  28
KREMMLING      FAIR      43  19  39 SW21G30   29.39S
LEADVILLE      LGT SNOW  23  17  78 S21G30    29.42F WCI   8
MONARCH PASS   PTSUNNY   19  14  79 SW39G56   29.57F WCI  -2
SALIDA         FAIR      40  23  50 S14G22    29.55F
SUNLIGHT       LGT SNOW  19  18  93 SW23G38   29.41S WCI   2
WILKERSON PASS FAIR      25  14  63 SW14G25   29.50R WCI  13
$$

COZ069>075-191700-
...SAN LUIS VALLEY/SANGRE DE CRISTO MOUNTAINS...

CITY           SKY/WX    TMP DP  RH WIND       PRES   REMARKS
ALAMOSA        CLOUDY    36  33  89 S17       29.60F
DEL NORTE      CLOUDY    33  28  85 N9        29.53F WCI  25
LA VETA PASS   CLOUDY    28  25  86 S24G55    29.66F WCI  14
SAGUACHE       FAIR      37  23  56 SW7       29.54F
$$

COZ035-036-038>040-191700-
...NORTHERN COLORADO FRONT RANGE...

CITY           SKY/WX    TMP DP  RH WIND       PRES   REMARKS
DENVER INTL AP LGT SNOW  11   7  84 E9        29.67F FOG     WCI  -2
AURORA         LGT SNOW  10   8  91 NE5       29.66F FOG     WCI   2
FRONT RANGE AP LGT SNOW  12  10  92 E8        29.67F WCI   1
ERIE MUNI ARPT LGT SNOW  11   8  85 NE6       29.76F WCI   2
BOULDER MUN AP LGT SNOW  12  10  92 NE5       29.69F WCI   4
CENTENNIAL     FLURRIES  11   9  92 E6        29.63F WCI   1
BROOMFIELD     LGT SNOW  10   9  92 NE5       29.67S WCI   2
FORT COLLINS   FLURRIES  11   6  81 E7        29.72F WCI   0
LONGMONT       LGT SNOW  14   9  80 NE5       29.73S WCI   7
$$

COZ041-046-047-076>085-087-088-191700-
...PIKES PEAK/PALMER DIVIDE AND SOUTHERN FOOTHILLS...

CITY           SKY/WX    TMP DP  RH WIND       PRES   REMARKS
COLO. SPRINGS  SNOW      15  14  95 S17       29.64S VSB 1/4 WCI  -1
A. F. ACADEMY  FRZ DRZL  16  14  91 S12       29.59F VSB 3/8 WCI   3
SCHRIEVER AFB  NOT AVBL
CHEYENNE MTN   LGT SNOW  12  10  92 SE12G20   29.52F WCI  -2
ELLICOTT       CLOUDY   N/A N/A N/A S3        29.63R
FALCON         FOG       14  13  95 MISG      29.60F VSB<1/4
FORT CARSON    NOT AVBL
LIMON          LGT SNOW  10   8  92 N3        29.70R FOG
MONUMENT HILL  LGT SNOW N/A N/A N/A E3        29.58F
CANON CITY     CLOUDY    21  19  93 E9        29.68R FOG     WCI  11
WALSENBURG     NOT AVBL
TRINIDAD       FOG       21  20  96 E7        29.66S VSB 1/4 WCI  12
$$

COZ042>045-048>051-090-091-191700-
...NORTHEAST COLORADO...

CITY           SKY/WX    TMP DP  RH WIND       PRES   REMARKS
GREELEY ARPT   FLURRIES  11   6  81 NE10      29.75F WCI  -3
AKRON          LGT SNOW   9   7  92 NE9       29.74S FOG     WCI  -4
BURLINGTON     LGT SNOW  13  10  88 N13       29.76F FOG     WCI  -2
WRAY           FLURRIES  14  10  85 NE9       29.82S WCI   2
YUMA           NOT AVBL
STERLING       LGT SNOW  12   9  85 NE9       29.79F WCI   0
HOLYOKE        LGT SNOW  14  10  85 N13       29.82S WCI   0
FORT MORGAN    LGT SNOW  11   6  78 NE7       29.77S WCI   1
$$

COZ086-089-092>099-191700-
...SOUTHEAST COLORADO...

CITY           SKY/WX    TMP DP  RH WIND       PRES   REMARKS
PUEBLO         CLOUDY    20  14  77 E10       29.73R WCI   9
LA JUNTA       CLOUDY    19  11  70 NE9       29.77R WCI   8
LAMAR          FLURRIES  20  10  65 NE8       29.78F WCI  10
SPRINGFIELD      N/A     20  17  88 NE8       29.73S WCI  10
$$




USA.gov is the U.S. government's official web portal to all federal, state and local government web resources and services.